Location: Newark
(47.5833°N, 8.1500°E)
Time: 23:29:55
(UTC+00:00)

Vanguard 1 - Pass Details

Date: 27 October 2020
Orbit: 650 x 3833 km, 34.2° (Epoch: 29 November)

Event Time Altitude Azimuth Distance (km) Brightness Sun altitude
Rises 18:31:46 0° 279° (W) 7,556 16.1 -23.2°
Reaches altitude 10° 18:38:42 10° 268° (W) 6,089 15.1 -24.4°
Maximum altitude 18:50:58 24° 224° (SW) 3,927 13.4 -26.4°
Drops below altitude 10° 18:59:21 10° 176° (S) 4,013 13.0 -27.8°
Enters shadow 19:01:28 - 167° (SSE) 4,336 13.1 -28.1°
Sets 19:02:46 0° 162° (SSE) 4,579 - -28.4°
